�������l�o���
Date,Time,MP-1(��Sv/h),MP-2(��Sv/h),MP-3(��Sv/h),MP-4(��Sv/h),MP-5(��Sv/h),MP-6(��Sv/h),MP-7(��Sv/h),����,����(m/s),���J
2020/01/20,00:00,0.181,0.163,0.274,0.254,0.252,0.140,0.086,��쐼,5.5,��
2020/01/20,00:10,0.182,0.162,0.275,0.254,0.253,0.139,0.085,�쐼,4.4,��
2020/01/20,00:20,0.181,0.162,0.275,0.255,0.252,0.140,0.086,��쐼,8.1,��
2020/01/20,00:30,0.181,0.163,0.273,0.256,0.251,0.140,0.086,��쐼,5.5,��
2020/01/20,00:40,0.182,0.163,0.275,0.254,0.253,0.140,0.087,��쐼,3.6,��
2020/01/20,00:50,0.181,0.162,0.275,0.255,0.253,0.139,0.086,��,4.6,��
2020/01/20,01:00,0.181,0.161,0.275,0.254,0.253,0.140,0.086,��,3.5,��
2020/01/20,01:10,0.181,0.161,0.274,0.256,0.253,0.139,0.086,��쐼,3.4,��
2020/01/20,01:20,0.182,0.162,0.275,0.254,0.252,0.139,0.086,�쐼,4.1,��
2020/01/20,01:30,0.181,0.163,0.275,0.255,0.252,0.140,0.085,�쐼,3.3,��
2020/01/20,01:40,0.181,0.162,0.275,0.255,0.253,0.138,0.085,�쐼,3.2,��
2020/01/20,01:50,0.180,0.162,0.274,0.255,0.251,0.140,0.086,�쐼,3.6,��
2020/01/20,02:00,0.182,0.162,0.275,0.255,0.251,0.139,0.086,�쐼,4.1,��
2020/01/20,02:10,0.181,0.161,0.274,0.256,0.252,0.139,0.085,��쐼,2.7,��
2020/01/20,02:20,0.181,0.161,0.275,0.254,0.252,0.140,0.086,��쐼,3.1,��
2020/01/20,02:30,0.181,0.162,0.273,0.255,0.253,0.139,0.085,�쐼,3.6,��
2020/01/20,02:40,0.181,0.162,0.276,0.256,0.253,0.139,0.086,�쐼,6.0,��
2020/01/20,02:50,0.181,0.162,0.275,0.254,0.251,0.139,0.086,�쐼,5.7,��
2020/01/20,03:00,0.181,0.162,0.275,0.254,0.251,0.139,0.086,�쐼,6.6,��
2020/01/20,03:10,0.180,0.162,0.275,0.254,0.252,0.140,0.085,�쐼,6.1,��
2020/01/20,03:20,0.181,0.162,0.275,0.255,0.251,0.140,0.086,�쐼,5.6,��
2020/01/20,03:30,0.182,0.163,0.275,0.255,0.253,0.139,0.086,�쐼,5.6,��
2020/01/20,03:40,0.182,0.162,0.275,0.255,0.253,0.139,0.086,�쐼,5.6,��
2020/01/20,03:50,0.181,0.161,0.274,0.255,0.252,0.139,0.086,�쐼,4.5,��
2020/01/20,04:00,0.181,0.161,0.273,0.256,0.253,0.140,0.085,��쐼,3.9,��
2020/01/20,04:10,0.182,0.161,0.275,0.253,0.253,0.140,0.086,�쐼,6.2,��
2020/01/20,04:20,0.181,0.162,0.275,0.254,0.251,0.140,0.086,��쐼,5.9,��
2020/01/20,04:30,0.180,0.162,0.275,0.255,0.252,0.139,0.086,�쐼,5.8,��
2020/01/20,04:40,0.182,0.162,0.274,0.256,0.252,0.139,0.086,�쐼,5.1,��
2020/01/20,04:50,0.181,0.162,0.275,0.256,0.252,0.140,0.086,�쐼,3.8,��
2020/01/20,05:00,0.182,0.163,0.274,0.255,0.254,0.139,0.086,�쐼,1.8,��
2020/01/20,05:10,0.181,0.162,0.275,0.254,0.253,0.140,0.086,-,CALM,��
2020/01/20,05:20,0.182,0.162,0.274,0.255,0.251,0.140,0.086,-,CALM,��
2020/01/20,05:30,0.181,0.162,0.274,0.256,0.253,0.139,0.086,-,CALM,��
2020/01/20,05:40,0.181,0.164,0.274,0.255,0.253,0.139,0.085,�쐼,0.8,��
2020/01/20,05:50,0.182,0.162,0.274,0.255,0.252,0.140,0.085,��,0.9,��
2020/01/20,06:00,0.181,0.162,0.274,0.256,0.254,0.138,0.085,��쐼,1.4,��
2020/01/20,06:10,0.180,0.163,0.277,0.255,0.253,0.139,0.086,��,2.2,��
2020/01/20,06:20,0.182,0.162,0.274,0.256,0.252,0.139,0.086,��쐼,3.3,��
2020/01/20,06:30,0.180,0.163,0.275,0.256,0.252,0.140,0.086,��쐼,3.2,��
2020/01/20,06:40,0.181,0.163,0.275,0.254,0.251,0.140,0.085,��,3.6,��
2020/01/20,06:50,0.181,0.162,0.274,0.255,0.252,0.139,0.085,��,3.4,��
2020/01/20,07:00,0.182,0.163,0.274,0.255,0.253,0.139,0.085,��,2.9,��
2020/01/20,07:10,0.181,0.162,0.275,0.255,0.252,0.140,0.086,�쐼,1.5,��
2020/01/20,07:20,0.181,0.163,0.275,0.255,0.251,0.140,0.086,�쐼,1.4,��
2020/01/20,07:30,0.181,0.162,0.275,0.254,0.252,0.140,0.085,���쐼,1.1,��
2020/01/20,07:40,0.182,0.161,0.275,0.256,0.253,0.139,0.085,��,2.8,��
2020/01/20,07:50,0.182,0.162,0.276,0.255,0.252,0.140,0.086,��,3.2,��
2020/01/20,08:00,0.182,0.162,0.275,0.255,0.252,0.140,0.086,��,3.3,��
2020/01/20,08:10,0.182,0.163,0.274,0.255,0.253,0.139,0.086,��,3.6,��
2020/01/20,08:20,0.181,0.162,0.274,0.255,0.252,0.140,0.085,��,4.0,��
2020/01/20,08:30,0.181,0.161,0.274,0.255,0.252,0.140,0.085,��,5.5,��
2020/01/20,08:40,0.182,0.161,0.276,0.253,0.252,0.140,0.086,���쐼,4.3,��
2020/01/20,08:50,0.182,0.162,0.275,0.254,0.253,0.139,0.086,�쐼,3.4,��
2020/01/20,09:00,0.180,0.162,0.274,0.253,0.253,0.139,0.086,���쐼,4.6,��
2020/01/20,09:10,0.182,0.162,0.275,0.254,0.252,0.140,0.085,���쐼,5.0,��
2020/01/20,09:20,0.182,0.162,0.276,0.255,0.252,0.139,0.085,���쐼,4.6,��
2020/01/20,09:30,0.181,0.162,0.274,0.255,0.253,0.139,0.085,���쐼,7.8,��
2020/01/20,09:40,0.182,0.161,0.275,0.255,0.253,0.140,0.086,��,8.1,��
2020/01/20,09:50,0.182,0.162,0.274,0.256,0.252,0.139,0.085,���쐼,8.4,��
2020/01/20,10:00,0.181,0.161,0.276,0.254,0.251,0.139,0.085,���k��,6.2,��
2020/01/20,10:10,0.181,0.162,0.275,0.254,0.254,0.140,0.086,���쐼,6.3,��
2020/01/20,10:20,0.181,0.162,0.275,0.254,0.253,0.140,0.086,��,5.9,��
2020/01/20,10:30,0.180,0.162,0.275,0.253,0.253,0.140,0.086,��,5.3,��
2020/01/20,10:40,0.180,0.161,0.276,0.255,0.253,0.139,0.087,���쐼,7.0,��
2020/01/20,10:50,0.181,0.163,0.276,0.255,0.251,0.141,0.085,���쐼,5.3,��
2020/01/20,11:00,0.181,0.162,0.275,0.256,0.252,0.140,0.085,��,6.5,��
2020/01/20,11:10,0.182,0.161,0.275,0.255,0.252,0.140,0.086,��,6.2,��
2020/01/20,11:20,0.181,0.162,0.274,0.254,0.252,0.140,0.086,��,7.0,��
2020/01/20,11:30,0.182,0.162,0.275,0.256,0.253,0.139,0.085,��,6.7,��
2020/01/20,11:40,0.181,0.163,0.275,0.255,0.251,0.140,0.086,���쐼,6.5,��
2020/01/20,11:50,0.181,0.162,0.274,0.255,0.254,0.140,0.086,��,6.2,��
2020/01/20,12:00,0.182,0.161,0.274,0.255,0.251,0.140,0.086,���쐼,7.9,��
2020/01/20,12:10,0.181,0.162,0.274,0.253,0.253,0.140,0.086,���쐼,6.4,��
2020/01/20,12:20,0.180,0.161,0.274,0.256,0.251,0.139,0.086,���쐼,8.6,��
2020/01/20,12:30,0.180,0.162,0.275,0.253,0.253,0.141,0.084,��,7.4,��
2020/01/20,12:40,0.180,0.163,0.274,0.255,0.251,0.139,0.086,��,6.2,��
2020/01/20,12:50,0.180,0.162,0.275,0.254,0.253,0.141,0.085,��,8.6,��
2020/01/20,13:00,0.181,0.162,0.275,0.254,0.252,0.139,0.087,��,10.6,��
2020/01/20,13:10,0.180,0.162,0.275,0.256,0.254,0.140,0.085,��,8.6,��
2020/01/20,13:20,0.181,0.162,0.274,0.255,0.253,0.140,0.086,��,7.0,��
2020/01/20,13:30,0.182,0.163,0.276,0.256,0.253,0.141,0.085,��,8.4,��
2020/01/20,13:40,0.180,0.162,0.276,0.254,0.255,0.140,0.086,��,5.8,��
2020/01/20,13:50,0.182,0.162,0.275,0.255,0.254,0.140,0.086,��,6.2,��
2020/01/20,14:00,0.181,0.162,0.274,0.253,0.254,0.140,0.085,��,6.7,��
2020/01/20,14:10,0.181,0.162,0.275,0.257,0.251,0.139,0.085,��,5.3,��
2020/01/20,14:20,0.181,0.162,0.275,0.253,0.254,0.140,0.085,���k��,9.5,��
2020/01/20,14:30,0.181,0.161,0.276,0.256,0.252,0.139,0.086,��,8.8,��
2020/01/20,14:40,0.182,0.163,0.276,0.255,0.253,0.140,0.086,���k��,5.7,��
2020/01/20,14:50,0.181,0.162,0.275,0.256,0.253,0.140,0.085,���k��,4.8,��
2020/01/20,15:00,0.183,0.161,0.277,0.256,0.252,0.140,0.086,��,2.8,��
2020/01/20,15:10,0.182,0.162,0.276,0.256,0.254,0.139,0.086,���k��,4.1,��
2020/01/20,15:20,0.182,0.163,0.276,0.257,0.253,0.139,0.086,���k��,5.1,��
2020/01/20,15:30,0.181,0.162,0.276,0.256,0.254,0.139,0.086,���k��,6.4,��
2020/01/20,15:40,0.184,0.162,0.276,0.255,0.252,0.140,0.085,���k��,4.7,��
2020/01/20,15:50,0.183,0.162,0.276,0.256,0.252,0.140,0.086,���k��,3.9,��
2020/01/20,16:00,0.181,0.162,0.275,0.255,0.255,0.141,0.086,���k��,4.0,��
2020/01/20,16:10,0.182,0.162,0.277,0.256,0.253,0.140,0.086,���k��,4.7,��
2020/01/20,16:20,0.181,0.164,0.276,0.256,0.254,0.141,0.086,�k��,4.3,��
2020/01/20,16:30,0.182,0.162,0.276,0.255,0.254,0.139,0.086,�k��,3.9,��
2020/01/20,16:40,0.182,0.162,0.277,0.256,0.253,0.140,0.086,���k��,4.0,��
2020/01/20,16:50,0.182,0.163,0.275,0.256,0.252,0.140,0.086,���k��,5.9,��
2020/01/20,17:00,0.183,0.162,0.276,0.256,0.254,0.141,0.087,�k��,5.6,��
2020/01/20,17:10,0.181,0.163,0.275,0.255,0.253,0.141,0.086,�k��,3.6,��
2020/01/20,17:20,0.182,0.162,0.275,0.256,0.253,0.140,0.086,�k�k��,3.4,��
2020/01/20,17:30,0.181,0.162,0.276,0.255,0.252,0.140,0.086,�k�k��,3.0,��
2020/01/20,17:40,0.182,0.162,0.276,0.256,0.254,0.140,0.085,�k�k��,3.5,��
2020/01/20,17:50,0.182,0.163,0.276,0.255,0.252,0.140,0.086,�k�k��,4.5,��
2020/01/20,18:00,0.182,0.162,0.275,0.256,0.252,0.140,0.087,�k�k��,4.3,��
2020/01/20,18:10,0.183,0.163,0.276,0.256,0.253,0.140,0.086,�k,5.2,��
2020/01/20,18:20,0.182,0.162,0.275,0.255,0.253,0.140,0.086,�k�k��,6.1,��
2020/01/20,18:30,0.182,0.162,0.276,0.256,0.253,0.140,0.086,�k�k��,5.1,��
2020/01/20,18:40,0.183,0.163,0.276,0.256,0.253,0.140,0.086,�k�k��,5.9,��
2020/01/20,18:50,0.182,0.163,0.275,0.255,0.254,0.139,0.086,�k�k��,6.0,��
2020/01/20,19:00,0.182,0.161,0.276,0.256,0.253,0.140,0.086,�k�k��,6.1,��
2020/01/20,19:10,0.183,0.161,0.277,0.256,0.252,0.140,0.086,�k,5.5,��
2020/01/20,19:20,0.181,0.163,0.276,0.257,0.253,0.140,0.086,�k,5.7,��
2020/01/20,19:30,0.181,0.163,0.276,0.256,0.253,0.140,0.086,�k,4.9,��
2020/01/20,19:40,0.182,0.162,0.277,0.256,0.253,0.139,0.086,�k,4.9,��
2020/01/20,19:50,0.182,0.162,0.276,0.256,0.253,0.140,0.087,�k,5.2,��
2020/01/20,20:00,0.182,0.162,0.275,0.256,0.253,0.140,0.086,�k,4.4,��
2020/01/20,20:10,0.182,0.163,0.275,0.255,0.254,0.140,0.086,�k,3.7,��
2020/01/20,20:20,0.181,0.162,0.275,0.256,0.253,0.140,0.087,�k,3.8,��
2020/01/20,20:30,0.182,0.162,0.276,0.257,0.254,0.139,0.086,�k,3.3,��
2020/01/20,20:40,0.182,0.164,0.276,0.257,0.254,0.140,0.086,�k,2.6,��
2020/01/20,20:50,0.181,0.162,0.275,0.255,0.253,0.139,0.086,�k,3.1,��
2020/01/20,21:00,0.182,0.162,0.277,0.255,0.253,0.140,0.086,�k,1.9,��
2020/01/20,21:10,0.182,0.163,0.276,0.257,0.253,0.140,0.087,-,CALM,��
2020/01/20,21:20,0.181,0.162,0.276,0.256,0.253,0.140,0.086,��,1.2,��
2020/01/20,21:30,0.182,0.163,0.276,0.256,0.254,0.140,0.086,��,2.2,��
2020/01/20,21:40,0.183,0.162,0.277,0.257,0.253,0.141,0.086,���쓌,1.9,��
2020/01/20,21:50,0.182,0.163,0.275,0.257,0.254,0.139,0.085,���쓌,2.2,��
2020/01/20,22:00,0.182,0.162,0.275,0.255,0.252,0.140,0.086,���쓌,1.9,��
2020/01/20,22:10,0.182,0.162,0.276,0.256,0.252,0.140,0.086,�쓌,1.9,��
2020/01/20,22:20,0.182,0.163,0.276,0.257,0.254,0.139,0.086,���쓌,2.0,�L
2020/01/20,22:30,0.182,0.163,0.277,0.256,0.254,0.141,0.088,���쓌,2.9,�L
2020/01/20,22:40,0.182,0.163,0.277,0.257,0.254,0.141,0.088,���쓌,2.2,��
2020/01/20,22:50,0.182,0.163,0.276,0.257,0.255,0.141,0.087,���쓌,2.7,��
2020/01/20,23:00,0.183,0.164,0.276,0.257,0.254,0.141,0.087,�쓌,3.2,��
2020/01/20,23:10,0.182,0.163,0.277,0.257,0.253,0.141,0.088,��쓌,2.8,��
2020/01/20,23:20,0.183,0.163,0.276,0.256,0.254,0.141,0.087,��쓌,3.4,��
2020/01/20,23:30,0.184,0.162,0.276,0.257,0.253,0.141,0.087,��쐼,2.0,�L
2020/01/20,23:40,0.182,0.163,0.276,0.256,0.254,0.140,0.087,�쐼,3.4,��
2020/01/20,23:50,0.182,0.162,0.276,0.256,0.252,0.141,0.087,�쐼,3.4,��
